{"data":{"norad_id":87782,"epoch":"2026-09-18T05:46:44.842656Z","epoch_age_seconds":209486,"freshness":"STALE","line1":"1 87782U          26261.24079679  .00002317  00000+0  75631-2 0  9999","line2":"2 87782 102.4096 176.2476 0075280  10.3860 349.8772 13.01951471604348","mean_motion":13.01951471,"eccentricity":0.007528,"inclination_deg":102.4096,"raan_deg":176.2476,"arg_perigee_deg":10.386,"mean_anomaly_deg":349.8772,"bstar":0.0075631,"rev_number":60434,"period_min":110.60320081623,"perigee_km":1196.9956108753,"apogee_km":1311.9118972686,"semimajor_km":7632.590754072,"source":"CELESTRAK","updated_at":"2026-09-20T09:00:32.479845Z"}}